TimeMDT,TemperatureF,Dew PointF,Humidity,Sea Level PressureIn,VisibilityMPH,Wind Direction,Wind SpeedMPH,Gust SpeedMPH,PrecipitationIn,Events,Conditions,WindDirDegrees,DateUTC
12:53 AM,54.0,28.0,37,29.91,10.0,Calm,Calm,-,N/A,,Mostly Cloudy,0,2013-05-14 06:53:00
1:53 AM,46.0,27.0,47,29.93,10.0,Calm,Calm,-,N/A,,Partly Cloudy,0,2013-05-14 07:53:00
2:53 AM,45.0,27.0,49,29.95,10.0,Calm,Calm,-,N/A,,Clear,0,2013-05-14 08:53:00
3:53 AM,44.1,26.1,49,29.95,10.0,Calm,Calm,-,N/A,,Clear,0,2013-05-14 09:53:00
4:53 AM,39.9,26.1,58,29.95,10.0,Calm,Calm,-,N/A,,Clear,0,2013-05-14 10:53:00
5:53 AM,37.9,26.1,62,29.97,10.0,Calm,Calm,-,N/A,,Clear,0,2013-05-14 11:53:00
7:53 AM,50.0,28.0,43,29.96,10.0,Calm,Calm,-,N/A,,Clear,0,2013-05-14 13:53:00
8:53 AM,62.1,24.1,23,29.94,10.0,Variable,3.5,-,N/A,,Clear,0,2013-05-14 14:53:00
9:53 AM,68.0,21.9,17,29.91,10.0,Variable,4.6,-,N/A,,Clear,0,2013-05-14 15:53:00
10:53 AM,70.0,21.9,16,29.88,10.0,SSW,9.2,-,N/A,,Clear,210,2013-05-14 16:53:00
11:53 AM,73.9,23.0,15,29.88,10.0,SW,6.9,-,N/A,,Clear,230,2013-05-14 17:53:00
12:53 PM,79.0,21.9,12,29.82,10.0,NNW,8.1,-,N/A,,Clear,330,2013-05-14 18:53:00
1:53 PM,75.0,21.0,13,29.85,10.0,North,11.5,20.7,N/A,,Unknown,10,2013-05-14 19:53:00
2:53 PM,75.0,24.1,15,29.86,10.0,ESE,8.1,17.3,N/A,,Unknown,110,2013-05-14 20:53:00
3:53 PM,73.9,23.0,15,29.84,10.0,SE,9.2,-,N/A,,Unknown,140,2013-05-14 21:53:00
4:53 PM,77.0,21.9,13,29.81,10.0,SSW,6.9,-,N/A,,Unknown,210,2013-05-14 22:53:00
5:53 PM,75.9,19.9,12,29.82,10.0,West,16.1,23.0,N/A,,Unknown,260,2013-05-14 23:53:00
6:02 PM,75.2,19.4,12,30.08,10.0,WSW,8.1,-,N/A,,Unknown,250,2013-05-15 00:02:00
6:41 PM,66.2,33.8,30,30.10,10.0,ESE,15.0,38.0,0.00,Rain,Light Rain,120,2013-05-15 00:41:00
6:53 PM,64.0,34.0,33,29.88,10.0,SE,11.5,18.4,0.00,Rain,Light Rain,140,2013-05-15 00:53:00
7:42 PM,68.0,28.4,23,30.12,10.0,West,19.6,28.8,0.00,,Unknown,280,2013-05-15 01:42:00
7:53 PM,66.9,28.9,24,29.84,10.0,SW,20.7,32.2,0.00,,Unknown,230,2013-05-15 01:53:00
8:53 PM,64.9,30.0,27,29.80,10.0,South,8.1,-,N/A,,Unknown,170,2013-05-15 02:53:00
9:53 PM,63.0,30.9,30,29.80,10.0,South,6.9,-,N/A,,Unknown,190,2013-05-15 03:53:00
10:53 PM,64.9,28.0,25,29.80,10.0,WSW,9.2,18.4,N/A,,Unknown,250,2013-05-15 04:53:00
11:53 PM,57.0,30.0,36,29.82,10.0,Calm,Calm,-,N/A,,Clear,0,2013-05-15 05:53:00